Regional Weather Roundup
Issued by NWS

Home | Current Version | Previous Version | Text Only | Print | Product List | Glossary On
Versions: 1 2 3 4 5 6 7 8 9 10 11 12 13 14 15 16 17 18 19 20 21 22 23 24 25 26 27 28 29 30 31 32 33 34 35 36 37 38 39 40 41 42 43 44 45 46 47 48 49 50
000
ASUS45 KBOI 260610
RWRID
WEATHER ROUNDUP FOR IDAHO
NATIONAL WEATHER SERVICE BOISE ID
1100 PM MST SUN JAN 25 2015

NOTE: "FAIR" INDICATES FEW OR NO CLOUDS BELOW 12000 FEET
WITH NO SIGNIFICANT WEATHER AND/OR OBSTRUCTIONS TO VISIBILITY

IDZ012-014-260700-
SOUTHWEST IDAHO


CITY           SKY/WX    TMP DP  RH WIND       PRES   REMARKS
BOISE          CLEAR     32  30  93 CALM      30.41S
CALDWELL       CLOUDY    32  25  74 CALM      30.44F
MOUNTAIN HOME  CLEAR     30  28  94 E3        30.42S
$$

IDZ016-017-260700-
SOUTHCENTRAL IDAHO


CITY           SKY/WX    TMP DP  RH WIND       PRES   REMARKS
BURLEY         CLOUDY    32  30  92 E14       30.41R WCI  22
JEROME         PTCLDY    31  27  85 NE16      30.41R WCI  20
TWIN FALLS     CLOUDY    33  30  88 E14       30.40S FOG     WCI  23
$$

IDZ019>023-260700-
SOUTHEAST IDAHO


CITY           SKY/WX    TMP DP  RH WIND       PRES   REMARKS
IDAHO FALLS    CLOUDY    29  27  92 NE6       30.45F FOG     WCI  23
POCATELLO      FOG       31  31 100 N5        30.44F VSB 1/4 WCI  26
REXBURG        MOCLDY    28  28 100 CALM      30.44S FOG
$$

IDZ006-010-011-018-031-032-260700-
CENTRAL IDAHO MOUNTAINS


CITY           SKY/WX    TMP DP  RH WIND       PRES   REMARKS
MCCALL         MOCLDY    27  27 100 NW5       30.36S FOG     WCI  22
HAILEY         CLEAR     28  27  93 CALM      30.43R
STANLEY          N/A     25  21  85 CALM      30.45R
SALMON         CLEAR     21  19  93 CALM      30.42S
CHALLIS        CLEAR     29  28  96 CALM      30.40S
$$

IDZ002-004-006-007-026-260700-
NORTHERN IDAHO


CITY           SKY/WX    TMP DP  RH WIND       PRES   REMARKS
LEWISTON       CLEAR     50  38  63 E9        30.17S
LOWELL           N/A     37  35  92 N6        30.32S WCI  32
COEUR D`ALENE  CLOUDY    37  36  93 NE10      30.17S VSB 1/2 WCI  30
MULLAN PASS    CLEAR     42  27  55 S10       30.24S
$$


USA.gov is the U.S. government's official web portal to all federal, state and local government web resources and services.